Location: Cactus School
(34.5700°N, 118.0931°W)
Time: 21:51:41
(UTC-07:00)

A-11 Canister half - Pass Details

Date: 02 May 2024
Orbit: 1525 x 1683 km, 47.3° (Epoch: 23 May)

Event Time Altitude Azimuth Distance (km) Brightness Sun altitude
Exits shadow 05:11:37 - 273° (W) 4,289 10.8 -10.1°
Reaches altitude 10° 05:13:09 10° 277° (W) 3,853 10.6 -9.8°
Maximum altitude 05:22:27 44° 347° (NNW) 2,185 9.9 -8.1°
Drops below altitude 10° 05:31:59 10° 57° (ENE) 3,943 12.9 -6.3°
Sets 05:35:27 0° 64° (ENE) 4,937 14.6 -5.6°
